Location: Buch
(49.7331°N, 12.1098°E)
Time: 18:39:39
(UTC+00:00)

Landsat 7 - Pass Details

Date: 30 September 2021
Orbit: 701 x 703 km, 98.0° (Epoch: 23 October)

Event Time Altitude Azimuth Distance (km) Brightness Sun altitude
Exits shadow 20:29:09 32° 291° (WNW) 1,207 5.4 -33.4°
Drops below altitude 10° 20:32:30 10° 331° (NNW) 2,181 7.1 -33.8°
Sets 20:34:57 0° 340° (NNW) 3,104 8.0 -34.0°
